Location: Newark
(52.3500°N, 175.9667°E)
Time: 01:10:47
(UTC+00:00)

N. Korean satellite - Pass Details

Date: 04 March 2021
Orbit: 453 x 499 km, 97.2° (Epoch: 11 April)

Event Time Altitude Azimuth Distance (km) Brightness Sun altitude
Rises 17:29:41 0° 18° (NNE) 2,523 10.6 -13.7°
Reaches altitude 10° 17:31:47 10° 24° (NNE) 1,649 9.7 -13.4°
Maximum altitude 17:35:13 47° 99° (E) 648 7.7 -12.9°
Drops below altitude 10° 17:38:41 10° 175° (S) 1,661 9.3 -12.3°
Sets 17:40:48 0° 181° (S) 2,544 10.2 -12.0°
